User: anonymous   Login
Location: Unspecified
(0.0000°N, 0.0000°E)
Time: 12:34:52
(UTC+00:00)
Language:

OV3-3 - Orbit

View from above orbital plane
View from above orbital plane
View from above satellite
View from above satellite

Ground track
Ground track

The orbit data is extracted from the following two-line orbital elements,

1  2389U 66070A   17204.87924338 +.00001443 +00000-0 +79675-4 0  9999
2  2389 081.3892 137.1776 1251085 185.2733 173.4095 12.90098096174553
Epoch (UTC): 23 July 2017 21:06:06
Eccentricity: 0.1251085
inclination: 81.3892°
perigee height: 340 km
apogee height: 2262 km
right ascension of ascending node: 137.1776°
argument of perigee: 185.2733°
revolutions per day: 12.90098096
mean anomaly at epoch: 173.4095°
orbit number at epoch: 17455

The dashed part of the orbit path shows where the satellite is in the earth's shadow,  

DLR